Location: Date Creek
(34.2167°N, 113.0301°W)
Time: 01:19:19

N. Korean satellite - Visible Passes

Search period start: 22 March 2018 00:00
Search period end: 01 April 2018 00:00
Orbit: 460 x 512 km, 97.2° (Epoch: 21 March)

Date Brightness Start Highest point End Pass type
(mag) Time Alt. Az. Time Alt. Az. Time Alt. Az.
22 Mar 9.8 19:19:50 10° SW 19:22:20 17° W 19:24:52 10° NW visible
26 Mar 9.8 19:17:51 10° SW 19:20:28 18° W 19:23:08 10° NW visible
30 Mar 9.7 19:15:49 10° SW 19:18:34 20° W 19:21:20 10° NW visible
